Location: Tilbury Hill Observatory
(42.0982°N, 76.1481°W)
Time: 20:57:38
(UTC-05:00)

N. Korean satellite - Visible Passes

Search period start: 15 December 2018 00:00
Search period end: 25 December 2018 00:00
Orbit: 456 x 511 km, 97.2° (Epoch: 15 December)

Date Brightness Start Highest point End Pass type
(mag) Time Alt. Az. Time Alt. Az. Time Alt. Az.
15 Dec 9.8 05:25:46 10° ENE 05:27:53 15° E 05:30:00 10° SE visible
15 Dec 6.4 17:34:00 10° SSE 17:37:25 89° WSW 17:40:52 10° NNW visible
16 Dec 6.5 06:33:21 10° N 06:36:56 71° WNW 06:40:33 10° SSW visible
16 Dec 6.9 17:09:39 10° SE 17:12:53 40° ENE 17:16:09 10° N visible
16 Dec 10.1 18:45:40 10° WSW 18:46:34 11° W 18:47:28 10° WNW visible
17 Dec 7.5 06:08:49 10° NNE 06:12:21 53° E 06:15:55 10° S visible
17 Dec 9.2 18:19:05 10° SSW 18:21:48 22° W 18:24:32 10° NW visible
18 Dec 9.0 05:44:38 10° NE 05:47:42 26° E 05:50:48 10° SSE visible
18 Dec 7.6 17:53:49 10° S 17:57:07 45° W 18:00:26 10° NNW visible
19 Dec 10.0 05:21:09 10° ENE 05:22:58 13° E 05:24:48 10° ESE visible
19 Dec 7.1 06:53:11 10° N 06:56:34 38° WNW 06:59:59 10° SW visible
19 Dec 6.3 17:29:05 10° SSE 17:32:30 79° ENE 17:35:58 10° N visible
20 Dec 6.5 06:28:24 10° N 06:32:03 82° WNW 06:35:43 10° SSW visible
20 Dec 7.0 17:04:50 10° SE 17:07:59 35° ENE 17:11:10 10° N visible
20 Dec 9.9 18:40:05 10° WSW 18:41:36 12° W 18:43:08 10° WNW visible
21 Dec 7.8 06:03:56 10° NNE 06:07:27 46° E 06:11:00 10° S visible
21 Dec 8.9 18:13:58 10° SSW 18:16:50 25° W 18:19:44 10° NW visible
22 Dec 9.2 05:39:49 10° NE 05:42:47 23° E 05:45:44 10° SSE visible
22 Dec 7.3 17:48:48 10° S 17:52:09 53° W 17:55:34 10° NNW visible
23 Dec 10.1 05:16:36 10° ENE 05:18:01 12° E 05:19:26 10° ESE visible
23 Dec 6.9 06:48:10 10° N 06:51:40 44° WNW 06:55:11 10° SSW visible
23 Dec 6.4 17:24:09 10° SSE 17:27:33 67° ENE 17:31:01 10° N visible
24 Dec 6.6 06:23:27 10° NNE 06:27:08 86° E 06:30:50 10° SSW visible
24 Dec 9.8 18:34:39 10° SW 18:36:36 14° W 18:38:34 10° WNW visible
